Find Kuiper-00150

NORAD ID: 65770 Int'l Des: 2025-217 Owner: KUIP Country: US Constellation: amazon-leo operational
LEOCIRCULAR

Current View

Loading 3D Globe...

About Kuiper-00150

Kuiper-00150 (NORAD 65770) is a amazon-leo constellation satellite launched Sep 25, 2025 by KUIP of US. It operates in LEO, CIRCULAR orbit with a mass of 490.00 kg.

Upcoming Passes

Passes for default location (London). Set your location on the main map for personalized predictions.

Altitude History

Loading altitude history...

Two-Line Element Set

1 65770U 25217J 26236.79069261 .00000029 00000-0 32848-4 0 9991
2 65770 51.9024 27.2800 0000599 113.1053 246.9973 14.79924495 49663
Epoch: Aug 24, 2026 • Age: 17 hours

Current Status

Altitude 630.5 km
Apogee / Perigee N/A
Velocity 7.54 km/s
Sub-Earth Point -2.51°S, 52.22°E
Launch Date Sep 25, 2025
Age 0.9 years
Type internet

Technical Details

Classification Payload
Mass 490.00 kg
Dry Mass 490.00 kg
Total Mass 490.00 kg
Length 1.80 m
Diameter 0.70 m
Span 5.00 m
Shape Box + 2 pan
Manufacturer KUIP
Bus Type Kuiper
Phase Status In Orbit
Owner/State KUIP/US

Most Searched